�������l�o���
Date,Time,MP-1(��Sv/h),MP-2(��Sv/h),MP-3(��Sv/h),MP-4(��Sv/h),MP-5(��Sv/h),MP-6(��Sv/h),MP-7(��Sv/h),MP-8(��Sv/h),����,����(m/s),���J
2020/11/20,00:00,0.683,0.984,0.622,1.216,0.870,0.389,0.683,0.640,��쓌,6.8,��
2020/11/20,00:10,0.683,0.983,0.622,1.216,0.870,0.391,0.682,0.641,��쓌,8.0,��
2020/11/20,00:20,0.682,0.982,0.623,1.217,0.871,0.388,0.682,0.641,��,8.5,��
2020/11/20,00:30,0.682,0.980,0.623,1.216,0.869,0.388,0.681,0.640,��,9.7,��
2020/11/20,00:40,0.683,0.983,0.622,1.216,0.868,0.388,0.681,0.640,��,11.0,��
2020/11/20,00:50,0.682,0.984,0.622,1.216,0.871,0.388,0.682,0.638,��,11.4,��
2020/11/20,01:00,0.685,0.985,0.623,1.216,0.869,0.387,0.683,0.640,��,8.2,��
2020/11/20,01:10,0.684,0.982,0.623,1.216,0.868,0.389,0.682,0.642,��,7.4,��
2020/11/20,01:20,0.683,0.984,0.623,1.215,0.871,0.388,0.680,0.640,��,9.7,��
2020/11/20,01:30,0.684,0.985,0.623,1.219,0.868,0.387,0.683,0.641,��,11.3,��
2020/11/20,01:40,0.683,0.984,0.621,1.217,0.869,0.388,0.682,0.642,��,11.8,��
2020/11/20,01:50,0.683,0.983,0.622,1.217,0.869,0.388,0.682,0.642,��,13.3,��
2020/11/20,02:00,0.684,0.983,0.622,1.217,0.870,0.389,0.684,0.640,��,12.0,��
2020/11/20,02:10,0.684,0.985,0.622,1.215,0.870,0.388,0.682,0.641,��,12.7,��
2020/11/20,02:20,0.684,0.984,0.622,1.216,0.870,0.389,0.683,0.642,��,11.3,��
2020/11/20,02:30,0.684,0.984,0.622,1.216,0.869,0.389,0.683,0.640,��,8.9,��
2020/11/20,02:40,0.683,0.984,0.623,1.216,0.869,0.387,0.682,0.641,��,6.5,��
2020/11/20,02:50,0.683,0.982,0.622,1.216,0.870,0.388,0.682,0.640,��,7.8,��
2020/11/20,03:00,0.684,0.982,0.622,1.216,0.869,0.389,0.683,0.641,��쐼,7.8,��
2020/11/20,03:10,0.685,0.983,0.621,1.218,0.869,0.389,0.682,0.641,��쐼,8.2,��
2020/11/20,03:20,0.684,0.987,0.623,1.217,0.868,0.390,0.681,0.641,��쐼,6.0,��
2020/11/20,03:30,0.685,0.984,0.623,1.217,0.870,0.388,0.683,0.641,�쐼,6.1,��
2020/11/20,03:40,0.686,0.985,0.623,1.215,0.872,0.390,0.684,0.640,�쐼,6.1,��
2020/11/20,03:50,0.686,0.988,0.625,1.218,0.869,0.391,0.682,0.641,�쐼,5.2,��
2020/11/20,04:00,0.686,0.986,0.622,1.218,0.870,0.389,0.684,0.641,��,3.1,��
2020/11/20,04:10,0.686,0.986,0.621,1.216,0.872,0.389,0.683,0.642,�쐼,5.5,��
2020/11/20,04:20,0.688,0.983,0.623,1.217,0.872,0.390,0.682,0.642,��쐼,4.7,��
2020/11/20,04:30,0.685,0.982,0.624,1.218,0.871,0.388,0.684,0.640,��,5.4,��
2020/11/20,04:40,0.687,0.985,0.621,1.218,0.871,0.388,0.684,0.640,��쐼,4.8,��
2020/11/20,04:50,0.687,0.983,0.623,1.216,0.871,0.390,0.682,0.641,��쐼,3.8,��
2020/11/20,05:00,0.685,0.985,0.623,1.217,0.872,0.388,0.682,0.643,��쐼,8.8,��
2020/11/20,05:10,0.685,0.984,0.623,1.217,0.871,0.389,0.685,0.640,�쐼,10.2,��
2020/11/20,05:20,0.684,0.984,0.623,1.217,0.872,0.389,0.683,0.640,��쐼,9.1,��
2020/11/20,05:30,0.685,0.982,0.623,1.218,0.872,0.388,0.683,0.640,��쐼,8.9,��
2020/11/20,05:40,0.687,0.983,0.623,1.218,0.873,0.389,0.683,0.641,�쐼,8.1,��
2020/11/20,05:50,0.685,0.981,0.622,1.219,0.872,0.388,0.683,0.639,��쐼,7.9,�L
2020/11/20,06:00,0.684,0.983,0.624,1.220,0.872,0.389,0.682,0.639,��쐼,7.7,�L
2020/11/20,06:10,0.686,0.984,0.625,1.218,0.871,0.388,0.683,0.640,��쐼,8.1,��
2020/11/20,06:20,0.685,0.981,0.624,1.221,0.871,0.388,0.684,0.640,�쐼,10.2,��
2020/11/20,06:30,0.684,0.981,0.623,1.218,0.874,0.388,0.683,0.640,�쐼,10.2,��
2020/11/20,06:40,0.685,0.981,0.623,1.218,0.872,0.390,0.682,0.641,�쐼,8.2,��
2020/11/20,06:50,0.684,0.982,0.625,1.218,0.873,0.389,0.683,0.640,�쐼,8.9,��
2020/11/20,07:00,0.684,0.982,0.623,1.219,0.873,0.388,0.683,0.640,��쐼,7.2,��
2020/11/20,07:10,0.685,0.980,0.624,1.219,0.870,0.387,0.683,0.639,��쐼,6.2,��
2020/11/20,07:20,0.684,0.979,0.623,1.217,0.870,0.390,0.681,0.640,��,6.9,��
2020/11/20,07:30,0.686,0.980,0.623,1.218,0.871,0.388,0.683,0.639,��쐼,5.5,��
2020/11/20,07:40,0.686,0.980,0.622,1.217,0.869,0.387,0.681,0.639,��쐼,2.6,��
2020/11/20,07:50,0.686,0.980,0.621,1.220,0.872,0.389,0.683,0.640,���쐼,2.6,��
2020/11/20,08:00,0.684,0.980,0.623,1.218,0.873,0.389,0.681,0.642,�쐼,5.3,��
2020/11/20,08:10,0.686,0.981,0.623,1.217,0.872,0.391,0.683,0.640,�쐼,8.7,��
2020/11/20,08:20,0.686,0.980,0.624,1.217,0.872,0.391,0.682,0.639,�쐼,10.2,��
2020/11/20,08:30,0.688,0.979,0.623,1.219,0.873,0.389,0.684,0.640,�쐼,9.1,��
2020/11/20,08:40,0.688,0.980,0.624,1.217,0.873,0.388,0.683,0.639,�쐼,4.4,��
2020/11/20,08:50,0.686,0.980,0.623,1.218,0.874,0.389,0.682,0.640,��,1.5,��
2020/11/20,09:00,0.689,0.978,0.625,1.217,0.871,0.390,0.683,0.640,��쓌,1.7,��
2020/11/20,09:10,0.686,0.978,0.623,1.220,0.872,0.388,0.683,0.640,��쓌,3.4,��
2020/11/20,09:20,0.686,0.979,0.622,1.217,0.871,0.387,0.684,0.641,��쓌,5.6,��
2020/11/20,09:30,0.686,0.977,0.623,1.217,0.873,0.389,0.685,0.640,��,6.4,��
2020/11/20,09:40,0.685,0.974,0.624,1.218,0.871,0.388,0.682,0.642,��쐼,6.2,��
2020/11/20,09:50,0.686,0.974,0.623,1.218,0.871,0.388,0.685,0.639,��쐼,5.2,��
2020/11/20,10:00,0.686,0.975,0.622,1.220,0.869,0.388,0.683,0.643,��,5.4,��
2020/11/20,10:10,0.685,0.979,0.624,1.217,0.871,0.389,0.684,0.641,��,5.1,��
2020/11/20,10:20,0.685,0.977,0.622,1.219,0.871,0.389,0.683,0.640,��,4.9,��
2020/11/20,10:30,0.685,0.977,0.623,1.218,0.873,0.389,0.684,0.641,��쐼,3.5,��
2020/11/20,10:40,0.685,0.976,0.624,1.219,0.870,0.389,0.683,0.640,��쐼,2.0,��
2020/11/20,10:50,0.684,0.977,0.625,1.217,0.871,0.388,0.684,-,��쐼,2.6,��
2020/11/20,11:00,0.685,0.977,0.623,1.216,0.872,0.390,0.683,-,�쐼,4.2,��
2020/11/20,11:10,0.687,0.977,0.622,1.218,0.873,0.389,0.684,-,��쐼,3.2,��
2020/11/20,11:20,0.686,0.979,0.622,1.216,0.870,0.387,0.685,-,��쐼,4.6,��
2020/11/20,11:30,0.689,0.978,0.622,1.220,0.873,0.390,0.684,-,�쐼,6.3,��
2020/11/20,11:40,0.689,0.981,0.622,1.217,0.873,0.390,0.685,-,��쐼,5.7,��
2020/11/20,11:50,0.688,0.981,0.623,1.218,0.872,0.390,0.686,-,��,4.6,��
2020/11/20,12:00,0.688,0.980,0.621,1.219,0.871,0.389,0.685,-,��쐼,5.3,��
2020/11/20,12:10,0.686,0.981,0.623,1.222,0.873,0.390,0.684,-,��,4.1,��
2020/11/20,12:20,0.688,0.982,0.622,1.220,0.872,0.390,0.685,0.639,��,4.4,��
2020/11/20,12:30,0.686,0.979,0.625,1.221,0.871,0.388,0.686,0.640,��쓌,4.4,��
2020/11/20,12:40,0.687,0.983,0.623,1.220,0.872,0.390,0.686,0.640,��쓌,4.9,��
2020/11/20,12:50,0.690,0.979,0.623,1.221,0.873,0.390,0.684,0.638,��쓌,3.9,��
2020/11/20,13:00,0.687,0.979,0.624,1.223,0.873,0.390,0.686,0.639,��,3.3,��
2020/11/20,13:10,0.688,0.979,0.624,1.222,0.871,0.390,0.685,0.639,��,2.3,��
2020/11/20,13:20,0.688,0.978,0.621,1.221,0.873,0.390,0.686,0.639,��쓌,5.4,��
2020/11/20,13:30,0.687,0.976,0.622,1.220,0.872,0.390,0.685,0.638,��,7.4,��
2020/11/20,13:40,0.686,0.977,0.623,1.220,0.873,0.388,0.685,0.639,��쓌,5.0,��
2020/11/20,13:50,0.687,0.979,0.621,1.219,0.874,0.389,0.685,0.640,��쓌,3.8,��
2020/11/20,14:00,0.687,0.980,0.622,1.218,0.874,0.391,0.685,0.640,��쓌,3.7,��
2020/11/20,14:10,0.688,0.980,0.622,1.219,0.870,0.390,0.687,0.641,��쓌,2.5,��
2020/11/20,14:20,0.688,0.981,0.623,1.221,0.873,0.390,0.684,0.640,-,CALM,��
2020/11/20,14:30,0.687,0.981,0.621,1.221,0.875,0.388,0.684,0.639,�쐼,1.9,��
2020/11/20,14:40,0.687,0.979,0.623,1.221,0.874,0.388,0.685,0.638,�쐼,2.5,��
2020/11/20,14:50,0.688,0.982,0.624,1.219,0.873,0.388,0.685,0.639,���쐼,2.6,��
2020/11/20,15:00,0.688,0.982,0.622,1.221,0.874,0.390,0.684,0.639,��,6.5,��
2020/11/20,15:10,0.690,0.984,0.625,1.221,0.872,0.391,0.684,0.641,���쐼,4.7,��
2020/11/20,15:20,0.689,0.985,0.625,1.223,0.875,0.390,0.685,0.641,���쐼,4.3,��
2020/11/20,15:30,0.690,0.985,0.624,1.220,0.875,0.390,0.684,0.641,�쐼,4.1,��
2020/11/20,15:40,0.689,0.986,0.623,1.222,0.874,0.390,0.684,0.641,��,3.9,��
2020/11/20,15:50,0.688,0.985,0.623,1.222,0.875,0.390,0.685,0.640,��,6.3,��
2020/11/20,16:00,0.689,0.985,0.623,1.222,0.873,0.390,0.685,0.641,���쐼,5.8,��
2020/11/20,16:10,0.688,0.985,0.623,1.218,0.871,0.391,0.684,0.640,���쐼,6.0,��
2020/11/20,16:20,0.688,0.985,0.622,1.221,0.873,0.390,0.686,0.642,��,5.1,��
2020/11/20,16:30,0.685,0.987,0.622,1.221,0.873,0.390,0.683,0.640,���쐼,5.2,��
2020/11/20,16:40,0.686,0.985,0.625,1.221,0.874,0.392,0.684,0.640,���쐼,6.8,��
2020/11/20,16:50,0.688,0.983,0.624,1.220,0.873,0.392,0.684,0.639,���쐼,6.4,��
2020/11/20,17:00,0.688,0.988,0.625,1.222,0.873,0.391,0.685,0.641,��,5.5,��
2020/11/20,17:10,0.688,0.986,0.624,1.221,0.873,0.392,0.685,0.640,��,5.1,��
2020/11/20,17:20,0.688,0.987,0.624,1.223,0.872,0.390,0.685,0.640,��,6.0,��
2020/11/20,17:30,0.686,0.986,0.625,1.222,0.874,0.391,0.685,0.640,��,6.4,��
2020/11/20,17:40,0.686,0.988,0.622,1.225,0.874,0.391,0.684,0.640,��,5.6,��
2020/11/20,17:50,0.687,0.987,0.621,1.224,0.877,0.391,0.685,0.641,���k��,6.2,��
2020/11/20,18:00,0.688,0.987,0.623,1.224,0.875,0.391,0.683,0.641,��,6.6,��
2020/11/20,18:10,0.688,0.987,0.621,1.224,0.875,0.391,0.684,0.642,��,4.6,��
2020/11/20,18:20,0.687,0.986,0.623,1.222,0.875,0.391,0.683,0.642,�k��,5.4,��
2020/11/20,18:30,0.687,0.986,0.621,1.225,0.875,0.390,0.685,0.641,�k��,4.7,��
2020/11/20,18:40,0.688,0.985,0.622,1.224,0.875,0.391,0.686,0.640,�k��,5.4,��
2020/11/20,18:50,0.686,0.987,0.622,1.226,0.877,0.391,0.685,0.640,�k��,6.0,��
2020/11/20,19:00,0.688,0.988,0.622,1.225,0.874,0.391,0.684,0.640,���k��,6.0,��
2020/11/20,19:10,0.687,0.987,0.622,1.223,0.876,0.390,0.683,0.641,�k��,4.0,��
2020/11/20,19:20,0.688,0.986,0.623,1.223,0.878,0.390,0.683,0.639,�k��,4.2,��
2020/11/20,19:30,0.687,0.986,0.623,1.224,0.878,0.391,0.684,0.641,�k��,5.6,��
2020/11/20,19:40,0.688,0.985,0.623,1.224,0.876,0.391,0.683,0.642,�k��,8.1,��
2020/11/20,19:50,0.688,0.987,0.624,1.225,0.877,0.390,0.683,0.642,�k��,8.4,��
2020/11/20,20:00,0.689,0.988,0.624,1.223,0.875,0.391,0.683,0.643,���k��,6.6,��
2020/11/20,20:10,0.689,0.988,0.623,1.224,0.876,0.390,0.684,0.642,�k��,10.7,��
2020/11/20,20:20,0.689,0.988,0.623,1.223,0.876,0.389,0.685,0.642,���k��,11.7,��
2020/11/20,20:30,0.687,0.986,0.622,1.223,0.875,0.389,0.684,0.641,���k��,9.7,��
2020/11/20,20:40,0.688,0.987,0.623,1.224,0.875,0.389,0.684,0.640,���k��,9.9,��
2020/11/20,20:50,0.688,0.986,0.624,1.224,0.876,0.390,0.683,0.640,�k��,6.0,��
2020/11/20,21:00,0.687,0.988,0.623,1.223,0.875,0.389,0.683,0.641,�k�k��,3.6,��
2020/11/20,21:10,0.689,0.985,0.623,1.222,0.876,0.389,0.683,0.640,�k�k��,3.2,��
2020/11/20,21:20,0.689,0.988,0.622,1.225,0.876,0.389,0.682,0.641,�k,1.9,��
2020/11/20,21:30,0.686,0.989,0.627,1.225,0.876,0.390,0.684,0.641,�k,3.3,��
2020/11/20,21:40,0.686,0.988,0.626,1.221,0.877,0.391,0.684,0.641,�k�k��,3.1,��
2020/11/20,21:50,0.687,0.989,0.625,1.226,0.875,0.390,0.682,0.641,�k,1.2,��
2020/11/20,22:00,0.688,0.989,0.625,1.224,0.875,0.390,0.684,0.642,�k�k��,1.9,��
2020/11/20,22:10,0.688,0.987,0.624,1.224,0.875,0.389,0.684,0.641,�k��,2.6,��
2020/11/20,22:20,0.688,0.987,0.624,1.224,0.876,0.392,0.683,0.642,�k,1.2,��
2020/11/20,22:30,0.689,0.990,0.624,1.222,0.876,0.391,0.683,0.642,���k��,2.9,��
2020/11/20,22:40,0.690,0.988,0.626,1.223,0.876,0.390,0.684,0.643,���k��,3.5,��
2020/11/20,22:50,0.688,0.988,0.625,1.221,0.874,0.390,0.686,0.643,���k��,4.1,��
2020/11/20,23:00,0.689,0.990,0.625,1.222,0.877,0.391,0.685,0.643,�k��,1.4,��
2020/11/20,23:10,0.688,0.988,0.623,1.222,0.876,0.389,0.684,0.642,�k,3.1,��
2020/11/20,23:20,0.688,0.989,0.625,1.223,0.875,0.390,0.684,0.644,�k�k��,3.3,��
2020/11/20,23:30,0.687,0.988,0.625,1.223,0.877,0.391,0.682,0.643,�k�k��,4.1,��
2020/11/20,23:40,0.689,0.988,0.625,1.223,0.875,0.390,0.682,0.643,�k,4.0,��
2020/11/20,23:50,0.689,0.988,0.625,1.222,0.874,0.391,0.683,0.644,�k�k��,5.0,��
